GLD1705 SBSN-SBBV

Flight info

Callsign GLD1705
Flight time N/A
Altitude 26000
Route SOBID DCT LODOK UZ24 ILVIS DCT ANBIX
Aircraft B350/L-SBGRW/S

Departure

Time 2026-04-21 22:29
Airport Santarém - Maestro Wilson Fonseca International Airport (SBSN)

Arrival

Time N/A
Airport Atlas Brasil Cantanhede International Airport (SBBV)
Time Latitude Longitude Altitude Speed Heading
2026-04-21 22:04 -2.42473 -54.78809 202 ft 0 kts 259°
2026-04-21 22:05 -2.42454 -54.78812 202 ft 0 kts 259°
2026-04-21 22:21 -2.42428 -54.78822 202 ft 5 kts 59°
2026-04-21 22:21 -2.42393 -54.78814 206 ft 9 kts 354°
2026-04-21 22:22 -2.42325 -54.78806 205 ft 10 kts 60°
2026-04-21 22:22 -2.42314 -54.78746 206 ft 8 kts 80°
2026-04-21 22:22 -2.42305 -54.78692 202 ft 7 kts 82°
2026-04-21 22:22 -2.42305 -54.78651 202 ft 5 kts 108°
2026-04-21 22:23 -2.42340 -54.78604 202 ft 14 kts 122°
2026-04-21 22:23 -2.42309 -54.78494 202 ft 18 kts 72°
2026-04-21 22:23 -2.42303 -54.78373 208 ft 17 kts 103°
2026-04-21 22:23 -2.42311 -54.78331 202 ft 9 kts 69°
2026-04-21 22:24 -2.42182 -54.78265 209 ft 8 kts 25°
2026-04-21 22:24 -2.42168 -54.78258 202 ft 0 kts 25°
2026-04-21 22:27 -2.42160 -54.78256 202 ft 10 kts 18°
2026-04-21 22:27 -2.42064 -54.78238 202 ft 10 kts 266°
2026-04-21 22:27 -2.42065 -54.78243 202 ft 0 kts 260°
2026-04-21 22:28 -2.42075 -54.78301 208 ft 39 kts 261°
2026-04-21 22:28 -2.42164 -54.78830 205 ft 110 kts 262°
2026-04-21 22:29 -2.42297 -54.79732 296 ft 145 kts 262°
2026-04-21 22:29 -2.42457 -54.80792 585 ft 165 kts 261°
2026-04-21 22:29 -2.42644 -54.81931 1119 ft 166 kts 260°
2026-04-21 22:29 -2.42834 -54.83071 1699 ft 167 kts 260°
2026-04-21 22:30 -2.43029 -54.84218 2256 ft 168 kts 260°
2026-04-21 22:30 -2.43228 -54.85367 2799 ft 170 kts 260°
2026-04-21 22:30 -2.43434 -54.86540 3348 ft 172 kts 259°
2026-04-21 22:30 -2.43709 -54.87707 3874 ft 173 kts 250°
2026-04-21 22:31 -2.43730 -54.88913 4352 ft 177 kts 288°
2026-04-21 22:31 -2.42991 -54.89887 4878 ft 178 kts 313°
2026-04-21 22:31 -2.42201 -54.90820 5384 ft 179 kts 302°
2026-04-21 22:31 -2.41485 -54.91846 5883 ft 181 kts 301°
2026-04-21 22:32 -2.40763 -54.92884 6391 ft 182 kts 301°
2026-04-21 22:32 -2.40035 -54.93929 6859 ft 184 kts 301°
2026-04-21 22:32 -2.39301 -54.94982 7339 ft 185 kts 301°
2026-04-21 22:32 -2.38564 -54.96043 7820 ft 186 kts 301°
2026-04-21 22:33 -2.37822 -54.97110 8309 ft 187 kts 301°
2026-04-21 22:33 -2.37074 -54.98185 8797 ft 189 kts 301°
2026-04-21 22:33 -2.36319 -54.99269 9261 ft 190 kts 301°
2026-04-21 22:33 -2.35561 -55.00360 9706 ft 192 kts 301°
2026-04-21 22:34 -2.34796 -55.01459 10127 ft 191 kts 301°
2026-04-21 22:34 -2.34075 -55.02485 10835 ft 172 kts 301°
2026-04-21 22:34 -2.33391 -55.03469 11303 ft 173 kts 301°
2026-04-21 22:34 -2.32698 -55.04464 11737 ft 175 kts 301°
2026-04-21 22:35 -2.32005 -55.05471 12169 ft 177 kts 300°
2026-04-21 22:35 -2.31303 -55.06483 12609 ft 178 kts 300°
2026-04-21 22:35 -2.30591 -55.07502 13051 ft 179 kts 300°
2026-04-21 22:35 -2.29875 -55.08529 13500 ft 181 kts 300°
2026-04-21 22:36 -2.28433 -55.10599 14275 ft 183 kts 301°
2026-04-21 22:36 -2.27694 -55.11663 14664 ft 185 kts 301°
2026-04-21 22:36 -2.26958 -55.12721 15047 ft 186 kts 301°
2026-04-21 22:37 -2.26226 -55.13772 15413 ft 187 kts 301°
2026-04-21 22:37 -2.25478 -55.14846 15785 ft 189 kts 301°
2026-04-21 22:37 -2.24728 -55.15925 16156 ft 190 kts 301°
2026-04-21 22:37 -2.23971 -55.17014 16525 ft 191 kts 301°
2026-04-21 22:38 -2.23210 -55.18106 16899 ft 192 kts 301°
2026-04-21 22:38 -2.22445 -55.19206 17260 ft 193 kts 301°
2026-04-21 22:38 -2.21674 -55.20314 17625 ft 194 kts 301°
2026-04-21 22:38 -2.20899 -55.21427 17984 ft 195 kts 302°
2026-04-21 22:39 -2.20120 -55.22546 18308 ft 196 kts 302°
2026-04-21 22:39 -2.19337 -55.23672 18616 ft 198 kts 302°
2026-04-21 22:39 -2.18550 -55.24802 18914 ft 199 kts 301°
2026-04-21 22:39 -2.17754 -55.25947 19212 ft 200 kts 302°
2026-04-21 22:40 -2.16960 -55.27088 19501 ft 201 kts 302°
2026-04-21 22:40 -2.16168 -55.28226 19811 ft 202 kts 301°
2026-04-21 22:40 -2.15366 -55.29376 20216 ft 198 kts 302°
2026-04-21 22:40 -2.14600 -55.30472 20758 ft 190 kts 302°
2026-04-21 22:41 -2.13839 -55.31564 21103 ft 193 kts 301°
2026-04-21 22:41 -2.13079 -55.32677 21450 ft 194 kts 300°
2026-04-21 22:41 -2.12306 -55.33788 21807 ft 195 kts 301°
2026-04-21 22:41 -2.11523 -55.34905 22151 ft 196 kts 301°
2026-04-21 22:42 -2.10738 -55.36028 22495 ft 198 kts 301°
2026-04-21 22:42 -2.09947 -55.37164 22838 ft 199 kts 301°
2026-04-21 22:42 -2.09154 -55.38303 23174 ft 200 kts 301°
2026-04-21 22:42 -2.08379 -55.39462 23529 ft 200 kts 296°
2026-04-21 22:43 -2.07667 -55.40670 23778 ft 202 kts 305°
2026-04-21 22:43 -2.06893 -55.41849 24075 ft 203 kts 302°
2026-04-21 22:43 -2.06183 -55.43079 24356 ft 205 kts 300°
2026-04-21 22:43 -2.05474 -55.44322 24642 ft 206 kts 301°
2026-04-21 22:44 -2.04755 -55.45549 24916 ft 208 kts 301°
2026-04-21 22:44 -2.04018 -55.46796 25195 ft 209 kts 301°
2026-04-21 22:44 -2.03273 -55.48055 25472 ft 211 kts 301°
2026-04-21 22:44 -2.02524 -55.49320 25745 ft 212 kts 301°
2026-04-21 22:45 -2.01769 -55.50597 25986 ft 216 kts 302°
2026-04-21 22:45 -2.00974 -55.51941 26000 ft 232 kts 302°
2026-04-21 22:45 -2.00416 -55.52882 25958 ft 244 kts 301°
2026-04-21 22:45 -1.99520 -55.54394 25893 ft 260 kts 301°
2026-04-21 22:46 -1.98580 -55.55984 25889 ft 270 kts 301°
2026-04-21 22:46 -1.97609 -55.57628 25889 ft 279 kts 301°
2026-04-21 22:46 -1.96613 -55.59329 25888 ft 286 kts 300°
2026-04-21 22:46 -1.95586 -55.61062 25887 ft 292 kts 302°
2026-04-21 22:47 -1.94532 -55.62818 25889 ft 297 kts 301°
2026-04-21 22:47 -1.93473 -55.64613 25890 ft 302 kts 301°
2026-04-21 22:47 -1.92405 -55.66430 25890 ft 305 kts 301°
2026-04-21 22:47 -1.91319 -55.68265 25887 ft 308 kts 301°
2026-04-21 22:48 -1.90223 -55.70114 25890 ft 311 kts 301°
2026-04-21 22:48 -1.89119 -55.71982 25884 ft 313 kts 301°
2026-04-21 22:48 -1.88010 -55.73856 25888 ft 314 kts 301°
2026-04-21 22:48 -1.86896 -55.75740 25890 ft 316 kts 301°
2026-04-21 22:49 -1.85775 -55.77635 25890 ft 317 kts 301°
2026-04-21 22:49 -1.84651 -55.79534 25884 ft 318 kts 301°
2026-04-21 22:49 -1.83525 -55.81437 25885 ft 319 kts 301°
2026-04-21 22:49 -1.82396 -55.83347 25886 ft 319 kts 301°
2026-04-21 22:50 -1.81265 -55.85258 25887 ft 320 kts 301°
2026-04-21 22:50 -1.80145 -55.87150 25883 ft 320 kts 301°
2026-04-21 22:50 -1.79012 -55.89064 25887 ft 320 kts 301°
2026-04-21 22:50 -1.77875 -55.90986 25887 ft 321 kts 301°
2026-04-21 22:51 -1.76739 -55.92908 25885 ft 321 kts 301°
2026-04-21 22:51 -1.75601 -55.94830 25884 ft 322 kts 301°
2026-04-21 22:51 -1.74462 -55.96755 25884 ft 322 kts 301°
2026-04-21 22:51 -1.73318 -55.98687 25888 ft 322 kts 301°
2026-04-21 22:52 -1.72177 -56.00615 25888 ft 323 kts 301°
2026-04-21 22:52 -1.71032 -56.02550 25889 ft 323 kts 301°
2026-04-21 22:52 -1.69888 -56.04484 25887 ft 323 kts 301°
2026-04-21 22:52 -1.68742 -56.06420 25887 ft 323 kts 301°
2026-04-21 22:53 -1.67595 -56.08357 25880 ft 324 kts 301°
2026-04-21 22:53 -1.66448 -56.10295 25887 ft 324 kts 301°
2026-04-21 22:53 -1.65304 -56.12228 25886 ft 324 kts 301°
2026-04-21 22:53 -1.64157 -56.14166 25886 ft 324 kts 301°
2026-04-21 22:54 -1.63012 -56.16100 25888 ft 324 kts 301°
2026-04-21 22:54 -1.61866 -56.18036 25889 ft 324 kts 301°
2026-04-21 22:54 -1.60733 -56.19950 25889 ft 324 kts 301°
2026-04-21 22:54 -1.59586 -56.21887 25887 ft 324 kts 301°
2026-04-21 22:55 -1.58441 -56.23821 25888 ft 324 kts 301°
2026-04-21 22:55 -1.57292 -56.25762 25885 ft 324 kts 301°
2026-04-21 22:55 -1.56146 -56.27698 25888 ft 324 kts 301°
2026-04-21 22:55 -1.54996 -56.29639 25888 ft 324 kts 301°
2026-04-21 22:56 -1.53848 -56.31579 25889 ft 324 kts 301°
2026-04-21 22:56 -1.52701 -56.33516 25888 ft 324 kts 301°
2026-04-21 22:56 -1.51569 -56.35428 25889 ft 324 kts 301°
2026-04-21 22:56 -1.50421 -56.37367 25888 ft 324 kts 301°
2026-04-21 22:57 -1.49272 -56.39307 25888 ft 324 kts 301°
2026-04-21 22:57 -1.48124 -56.41246 25889 ft 324 kts 301°
2026-04-21 22:57 -1.46976 -56.43185 25888 ft 324 kts 301°
2026-04-21 22:57 -1.45831 -56.45119 25888 ft 323 kts 301°
2026-04-21 22:58 -1.44685 -56.47054 25887 ft 323 kts 301°
2026-04-21 22:58 -1.43539 -56.48989 25890 ft 323 kts 301°
2026-04-21 22:58 -1.42395 -56.50921 25888 ft 323 kts 301°
2026-04-21 22:58 -1.41249 -56.52856 25888 ft 323 kts 301°
2026-04-21 22:59 -1.40105 -56.54787 25888 ft 323 kts 301°
2026-04-21 22:59 -1.38959 -56.56722 25886 ft 323 kts 301°
2026-04-21 22:59 -1.37816 -56.58652 25891 ft 323 kts 301°
2026-04-21 22:59 -1.36672 -56.60584 25885 ft 322 kts 301°
2026-04-21 23:00 -1.35544 -56.62489 25889 ft 322 kts 301°
2026-04-21 23:00 -1.34402 -56.64417 25888 ft 322 kts 301°
2026-04-21 23:00 -1.33263 -56.66339 25884 ft 322 kts 301°
2026-04-21 23:00 -1.32122 -56.68264 25884 ft 322 kts 301°
2026-04-21 23:01 -1.30984 -56.70187 25886 ft 322 kts 301°
2026-04-21 23:01 -1.29844 -56.72112 25886 ft 321 kts 301°
2026-04-21 23:01 -1.28705 -56.74033 25887 ft 321 kts 301°
2026-04-21 23:01 -1.27568 -56.75953 25889 ft 321 kts 301°
2026-04-21 23:02 -1.26430 -56.77874 25890 ft 321 kts 301°
2026-04-21 23:02 -1.25293 -56.79793 25889 ft 321 kts 302°
2026-04-21 23:02 -1.24158 -56.81709 25888 ft 320 kts 302°
2026-04-21 23:02 -1.23023 -56.83625 25886 ft 320 kts 302°
2026-04-21 23:03 -1.21888 -56.85540 25885 ft 320 kts 302°
2026-04-21 23:03 -1.20753 -56.87456 25885 ft 320 kts 302°
2026-04-21 23:03 -1.19632 -56.89348 25888 ft 320 kts 302°
2026-04-21 23:03 -1.18499 -56.91261 25888 ft 320 kts 302°
2026-04-21 23:04 -1.17364 -56.93176 25891 ft 320 kts 302°
2026-04-21 23:04 -1.16233 -56.95085 25891 ft 319 kts 302°
2026-04-21 23:04 -1.15100 -56.96997 25890 ft 319 kts 302°
2026-04-21 23:04 -1.13968 -56.98907 25889 ft 319 kts 302°
2026-04-21 23:05 -1.12835 -57.00819 25889 ft 319 kts 302°
2026-04-21 23:05 -1.11701 -57.02733 25891 ft 319 kts 302°
2026-04-21 23:05 -1.10570 -57.04644 25891 ft 319 kts 302°
2026-04-21 23:05 -1.09437 -57.06555 25889 ft 319 kts 302°
2026-04-21 23:06 -1.08303 -57.08467 25889 ft 319 kts 302°
2026-04-21 23:06 -1.07169 -57.10382 25890 ft 319 kts 302°
2026-04-21 23:06 -1.06037 -57.12291 25891 ft 319 kts 302°
2026-04-21 23:06 -1.04919 -57.14178 25892 ft 320 kts 302°
2026-04-21 23:07 -1.03786 -57.16090 25893 ft 320 kts 302°
2026-04-21 23:07 -1.02652 -57.18003 25892 ft 320 kts 302°
2026-04-21 23:07 -1.01519 -57.19916 25893 ft 320 kts 302°
2026-04-21 23:07 -1.00387 -57.21826 25893 ft 320 kts 302°
2026-04-21 23:08 -0.99255 -57.23735 25892 ft 320 kts 302°
2026-04-21 23:08 -0.98122 -57.25646 25894 ft 320 kts 302°
2026-04-21 23:08 -0.96988 -57.27560 25897 ft 320 kts 302°
2026-04-21 23:08 -0.95856 -57.29469 25897 ft 320 kts 302°
2026-04-21 23:09 -0.94723 -57.31381 25895 ft 320 kts 302°
2026-04-21 23:09 -0.93588 -57.33296 25895 ft 320 kts 302°
2026-04-21 23:09 -0.92454 -57.35209 25893 ft 320 kts 302°
2026-04-21 23:09 -0.91319 -57.37124 25894 ft 320 kts 302°
2026-04-21 23:10 -0.90184 -57.39039 25896 ft 320 kts 302°
2026-04-21 23:10 -0.89047 -57.40956 25896 ft 320 kts 302°
2026-04-21 23:10 -0.87914 -57.42869 25898 ft 320 kts 302°
2026-04-21 23:10 -0.86778 -57.44786 25898 ft 320 kts 302°
2026-04-21 23:11 -0.85642 -57.46702 25897 ft 320 kts 302°
2026-04-21 23:11 -0.84507 -57.48617 25897 ft 320 kts 302°
2026-04-21 23:11 -0.83371 -57.50532 25899 ft 320 kts 302°
2026-04-21 23:11 -0.82233 -57.52452 25901 ft 321 kts 302°
2026-04-21 23:12 -0.81095 -57.54370 25900 ft 321 kts 302°
2026-04-21 23:12 -0.79973 -57.56265 25899 ft 321 kts 302°
2026-04-21 23:12 -0.78836 -57.58182 25898 ft 321 kts 301°
2026-04-21 23:12 -0.77699 -57.60100 25900 ft 321 kts 301°
2026-04-21 23:13 -0.76563 -57.62017 25898 ft 320 kts 301°
2026-04-21 23:13 -0.75424 -57.63937 25899 ft 320 kts 301°
2026-04-21 23:13 -0.74287 -57.65855 25899 ft 320 kts 301°
2026-04-21 23:13 -0.73150 -57.67773 25899 ft 320 kts 301°
2026-04-21 23:14 -0.72028 -57.69665 25900 ft 320 kts 301°
2026-04-21 23:14 -0.70893 -57.71580 25898 ft 320 kts 301°
2026-04-21 23:14 -0.69758 -57.73494 25901 ft 320 kts 301°
2026-04-21 23:14 -0.68626 -57.75404 25899 ft 320 kts 301°
2026-04-21 23:15 -0.67489 -57.77320 25898 ft 320 kts 301°
2026-04-21 23:15 -0.66272 -57.79171 25903 ft 319 kts 310°
2026-04-21 23:15 -0.64770 -57.80794 25899 ft 318 kts 315°
2026-04-21 23:15 -0.63225 -57.82383 25899 ft 318 kts 315°
2026-04-21 23:16 -0.61709 -57.83984 25904 ft 318 kts 314°
2026-04-21 23:16 -0.60194 -57.85606 25902 ft 318 kts 314°
2026-04-21 23:16 -0.58679 -57.87215 25902 ft 318 kts 314°
2026-04-21 23:16 -0.57159 -57.88822 25902 ft 318 kts 314°
2026-04-21 23:17 -0.55637 -57.90432 25903 ft 318 kts 314°
2026-04-21 23:17 -0.54121 -57.92040 25902 ft 318 kts 314°
2026-04-21 23:17 -0.52625 -57.93628 25904 ft 318 kts 314°
2026-04-21 23:17 -0.51107 -57.95236 25905 ft 318 kts 314°
2026-04-21 23:18 -0.49590 -57.96843 25906 ft 318 kts 314°
2026-04-21 23:18 -0.48074 -57.98450 25905 ft 318 kts 314°
2026-04-21 23:18 -0.46556 -58.00059 25903 ft 318 kts 314°
2026-04-21 23:18 -0.45042 -58.01664 25903 ft 318 kts 314°
2026-04-21 23:19 -0.43526 -58.03271 25905 ft 318 kts 314°
2026-04-21 23:19 -0.42009 -58.04878 25903 ft 318 kts 314°
2026-04-21 23:19 -0.40495 -58.06483 25906 ft 317 kts 314°
2026-04-21 23:19 -0.38983 -58.08086 25906 ft 317 kts 314°
2026-04-21 23:20 -0.37462 -58.09696 25905 ft 317 kts 314°
2026-04-21 23:20 -0.35949 -58.11300 25905 ft 317 kts 314°
2026-04-21 23:20 -0.34434 -58.12907 25902 ft 317 kts 314°
2026-04-21 23:20 -0.32921 -58.14510 25902 ft 317 kts 314°
2026-04-21 23:21 -0.31428 -58.16092 25903 ft 317 kts 314°
2026-04-21 23:21 -0.29913 -58.17698 25904 ft 317 kts 314°
2026-04-21 23:21 -0.28401 -58.19300 25902 ft 317 kts 314°
2026-04-21 23:21 -0.26887 -58.20904 25902 ft 317 kts 314°
2026-04-21 23:22 -0.25374 -58.22508 25902 ft 317 kts 314°
2026-04-21 23:22 -0.23863 -58.24110 25902 ft 317 kts 314°
2026-04-21 23:22 -0.22345 -58.25718 25905 ft 317 kts 314°
2026-04-21 23:22 -0.20832 -58.27321 25902 ft 317 kts 314°
2026-04-21 23:23 -0.19321 -58.28924 25902 ft 317 kts 314°
2026-04-21 23:23 -0.17808 -58.30526 25902 ft 317 kts 314°
2026-04-21 23:23 -0.16296 -58.32128 25901 ft 317 kts 314°
2026-04-21 23:23 -0.14786 -58.33728 25901 ft 317 kts 314°
2026-04-21 23:24 -0.13272 -58.35333 25906 ft 317 kts 314°
2026-04-21 23:24 -0.11756 -58.36940 25900 ft 317 kts 314°
2026-04-21 23:24 -0.10241 -58.38546 25901 ft 317 kts 314°
2026-04-21 23:24 -0.08728 -58.40149 25903 ft 317 kts 314°
2026-04-21 23:25 -0.07211 -58.41756 25903 ft 317 kts 314°
2026-04-21 23:25 -0.05700 -58.43357 25903 ft 317 kts 314°
2026-04-21 23:25 -0.04203 -58.44944 25900 ft 317 kts 314°
2026-04-21 23:25 -0.02689 -58.46548 25898 ft 317 kts 314°
2026-04-21 23:26 -0.01176 -58.48153 25898 ft 317 kts 314°
2026-04-21 23:26 0.00339 -58.49757 25899 ft 317 kts 314°
2026-04-21 23:26 0.01849 -58.51358 25903 ft 317 kts 314°
2026-04-21 23:26 0.03362 -58.52962 25901 ft 317 kts 314°
2026-04-21 23:27 0.04875 -58.54566 25903 ft 317 kts 314°
2026-04-21 23:27 0.06392 -58.56175 25901 ft 317 kts 314°
2026-04-21 23:27 0.07905 -58.57780 25902 ft 317 kts 314°
2026-04-21 23:27 0.09416 -58.59381 25899 ft 317 kts 314°
2026-04-21 23:28 0.10928 -58.60982 25898 ft 317 kts 314°
2026-04-21 23:28 0.12441 -58.62588 25899 ft 317 kts 314°
2026-04-21 23:28 0.13954 -58.64192 25899 ft 317 kts 314°
2026-04-21 23:28 0.15466 -58.65796 25899 ft 317 kts 314°
2026-04-21 23:29 0.16978 -58.67397 25899 ft 317 kts 314°
2026-04-21 23:29 0.18490 -58.69001 25901 ft 317 kts 314°
2026-04-21 23:29 0.20002 -58.70605 25902 ft 317 kts 314°
2026-04-21 23:29 0.21514 -58.72207 25902 ft 317 kts 314°
2026-04-21 23:30 0.23026 -58.73810 25902 ft 317 kts 314°
2026-04-21 23:30 0.24519 -58.75393 25901 ft 317 kts 314°
2026-04-21 23:30 0.26032 -58.76997 25903 ft 317 kts 314°
2026-04-21 23:30 0.27544 -58.78600 25902 ft 317 kts 314°
2026-04-21 23:31 0.29056 -58.80203 25904 ft 317 kts 314°
2026-04-21 23:31 0.30570 -58.81808 25901 ft 317 kts 314°
2026-04-21 23:31 0.32081 -58.83410 25900 ft 317 kts 314°
2026-04-21 23:31 0.33083 -58.84473 25901 ft 317 kts 314°
2026-04-21 23:32 0.34595 -58.86076 25900 ft 317 kts 314°
2026-04-21 23:32 0.36616 -58.88218 25900 ft 317 kts 314°
2026-04-21 23:32 0.37618 -58.89280 25901 ft 317 kts 314°
2026-04-21 23:32 0.39129 -58.90883 25900 ft 317 kts 314°
2026-04-21 23:33 0.40641 -58.92486 25899 ft 317 kts 314°
2026-04-21 23:33 0.42152 -58.94088 25901 ft 317 kts 314°
2026-04-21 23:33 0.43664 -58.95692 25905 ft 317 kts 314°
2026-04-21 23:33 0.45179 -58.97297 25905 ft 317 kts 314°
2026-04-21 23:34 0.46691 -58.98900 25903 ft 317 kts 314°
2026-04-21 23:34 0.48201 -59.00502 25903 ft 317 kts 314°
2026-04-21 23:34 0.49712 -59.02104 25906 ft 317 kts 314°
2026-04-21 23:34 0.51222 -59.03705 25898 ft 317 kts 314°
2026-04-21 23:35 0.52733 -59.05307 25897 ft 316 kts 314°
2026-04-21 23:35 0.54243 -59.06907 25898 ft 316 kts 314°
2026-04-21 23:35 0.55755 -59.08511 25900 ft 316 kts 314°
2026-04-21 23:35 0.57263 -59.10110 25902 ft 316 kts 314°
2026-04-21 23:36 0.58773 -59.11711 25901 ft 316 kts 314°
2026-04-21 23:36 0.60280 -59.13310 25902 ft 316 kts 314°
2026-04-21 23:36 0.61791 -59.14912 25900 ft 316 kts 314°
2026-04-21 23:36 0.63278 -59.16488 25901 ft 316 kts 314°
2026-04-21 23:37 0.64786 -59.18087 25901 ft 316 kts 314°
2026-04-21 23:37 0.66313 -59.19707 25901 ft 316 kts 314°
2026-04-21 23:37 0.67822 -59.21307 25901 ft 316 kts 314°
2026-04-21 23:37 0.69310 -59.22884 25898 ft 316 kts 314°
2026-04-21 23:38 0.70817 -59.24483 25897 ft 316 kts 314°
2026-04-21 23:38 0.72328 -59.26085 25899 ft 316 kts 314°
2026-04-21 23:38 0.73842 -59.27690 25900 ft 316 kts 314°
2026-04-21 23:38 0.75349 -59.29288 25898 ft 316 kts 314°
2026-04-21 23:39 0.76860 -59.30891 25899 ft 316 kts 314°
2026-04-21 23:39 0.78371 -59.32493 25898 ft 316 kts 314°
2026-04-21 23:39 0.79882 -59.34093 25898 ft 316 kts 315°
2026-04-21 23:39 0.81483 -59.35595 25899 ft 316 kts 318°
2026-04-21 23:40 0.83105 -59.37082 25903 ft 316 kts 318°
2026-04-21 23:40 0.84772 -59.38506 25907 ft 316 kts 323°
2026-04-21 23:40 0.86553 -59.39787 25902 ft 315 kts 325°
2026-04-21 23:40 0.88321 -59.41095 25904 ft 316 kts 323°
2026-04-21 23:41 0.90042 -59.42462 25903 ft 316 kts 322°
2026-04-21 23:41 0.91763 -59.43823 25902 ft 316 kts 323°
2026-04-21 23:41 0.93501 -59.45162 25900 ft 316 kts 323°
2026-04-21 23:41 0.95219 -59.46485 25902 ft 316 kts 323°
2026-04-21 23:42 0.96958 -59.47837 25821 ft 319 kts 322°
2026-04-21 23:42 0.98730 -59.49215 25592 ft 326 kts 322°
2026-04-21 23:42 1.00537 -59.50616 25372 ft 331 kts 322°
2026-04-21 23:42 1.02370 -59.52037 25145 ft 336 kts 322°
2026-04-21 23:43 1.04226 -59.53477 24925 ft 339 kts 322°
2026-04-21 23:43 1.06095 -59.54929 24705 ft 341 kts 322°
2026-04-21 23:43 1.07976 -59.56387 24488 ft 343 kts 322°
2026-04-21 23:43 1.09837 -59.57840 24273 ft 344 kts 322°
2026-04-21 23:44 1.11718 -59.59315 24059 ft 344 kts 322°
2026-04-21 23:44 1.13610 -59.60775 23844 ft 343 kts 322°
2026-04-21 23:44 1.15501 -59.62231 23633 ft 343 kts 322°
2026-04-21 23:44 1.17385 -59.63696 23411 ft 343 kts 322°
2026-04-21 23:45 1.19268 -59.65160 23157 ft 343 kts 322°
2026-04-21 23:45 1.23043 -59.68087 22647 ft 343 kts 322°
2026-04-21 23:45 1.24927 -59.69551 22399 ft 342 kts 322°
2026-04-21 23:46 1.26802 -59.71007 22151 ft 340 kts 322°
2026-04-21 23:46 1.28643 -59.72434 21908 ft 338 kts 322°
2026-04-21 23:46 1.30496 -59.73874 21672 ft 337 kts 322°
2026-04-21 23:46 1.32344 -59.75308 21420 ft 335 kts 322°
2026-04-21 23:47 1.34185 -59.76737 21179 ft 334 kts 322°
2026-04-21 23:47 1.36020 -59.78161 20938 ft 333 kts 322°
2026-04-21 23:47 1.37857 -59.79587 20702 ft 333 kts 322°
2026-04-21 23:47 1.39685 -59.81006 20465 ft 332 kts 322°
2026-04-21 23:48 1.41511 -59.82423 20232 ft 332 kts 321°
2026-04-21 23:48 1.43335 -59.83839 19997 ft 332 kts 321°
2026-04-21 23:48 1.45157 -59.85254 19771 ft 332 kts 321°
2026-04-21 23:48 1.46981 -59.86669 19539 ft 331 kts 321°
2026-04-21 23:49 1.48781 -59.88066 19318 ft 331 kts 321°
2026-04-21 23:49 1.50624 -59.89497 19089 ft 331 kts 321°
2026-04-21 23:49 1.52443 -59.90909 18866 ft 331 kts 321°
2026-04-21 23:49 1.54238 -59.92302 18646 ft 331 kts 321°
2026-04-21 23:50 1.56058 -59.93715 18426 ft 331 kts 321°
2026-04-21 23:50 1.57873 -59.95124 18212 ft 330 kts 321°
2026-04-21 23:50 1.59689 -59.96534 17959 ft 330 kts 321°
2026-04-21 23:50 1.61501 -59.97942 17704 ft 330 kts 321°
2026-04-21 23:51 1.63320 -59.99353 17449 ft 330 kts 321°
2026-04-21 23:51 1.65132 -60.00759 17206 ft 330 kts 321°
2026-04-21 23:51 1.66944 -60.02167 16954 ft 330 kts 321°
2026-04-21 23:51 1.68756 -60.03572 16709 ft 329 kts 321°
2026-04-21 23:52 1.70565 -60.04978 16466 ft 329 kts 321°
2026-04-21 23:52 1.72372 -60.06382 16223 ft 329 kts 321°
2026-04-21 23:52 1.74179 -60.07784 15986 ft 329 kts 321°
2026-04-21 23:52 1.75989 -60.09191 15743 ft 329 kts 321°
2026-04-21 23:53 1.77772 -60.10576 15509 ft 328 kts 321°
2026-04-21 23:53 1.79580 -60.11978 15272 ft 328 kts 321°
2026-04-21 23:53 1.81384 -60.13380 15041 ft 328 kts 321°
2026-04-21 23:53 1.83188 -60.14782 14808 ft 328 kts 321°
2026-04-21 23:54 1.84992 -60.16183 14581 ft 328 kts 321°
2026-04-21 23:54 1.86793 -60.17580 14349 ft 327 kts 321°
2026-04-21 23:54 1.88590 -60.18978 14125 ft 327 kts 321°
2026-04-21 23:54 1.90390 -60.20375 13900 ft 327 kts 321°
2026-04-21 23:55 1.92169 -60.21756 13677 ft 327 kts 321°
2026-04-21 23:55 1.93961 -60.23150 13425 ft 327 kts 321°
2026-04-21 23:55 1.95755 -60.24543 13173 ft 326 kts 321°
2026-04-21 23:55 1.97548 -60.25936 12916 ft 326 kts 321°
2026-04-21 23:56 1.99344 -60.27329 12672 ft 325 kts 321°
2026-04-21 23:56 2.01128 -60.28718 12426 ft 325 kts 321°
2026-04-21 23:56 2.02910 -60.30102 12179 ft 324 kts 321°
2026-04-21 23:56 2.04689 -60.31483 11943 ft 323 kts 321°
2026-04-21 23:57 2.06466 -60.32864 11700 ft 323 kts 321°
2026-04-21 23:57 2.08238 -60.34241 11458 ft 322 kts 321°
2026-04-21 23:57 2.10004 -60.35613 11226 ft 321 kts 321°
2026-04-21 23:57 2.11768 -60.36982 10992 ft 321 kts 321°
2026-04-21 23:58 2.13506 -60.38334 10759 ft 321 kts 321°
2026-04-21 23:58 2.15267 -60.39702 10529 ft 320 kts 321°